{"data":{"norad_id":57880,"intl_designator":"2023-144S","name":"STARLINK-30436","alt_names":[],"object_type":"PAYLOAD","status":"ACTIVE","operator":null,"country":"US","launch_date":"2023-09-16","launch_site_code":"AFETR","launch_vehicle":null,"mission":null,"orbit_class":"UNKNOWN","rcs_meters":null,"size_class":null,"mass_kg":null,"dimensions":null,"purposes":["comms"],"wikipedia_slug":null,"has_3d_model":false,"image_url":null,"decayed_at":null,"tle_current":{"epoch":"2026-09-20T07:17:27.939840Z","epoch_age_seconds":151590,"freshness":"FRESH","line1":"1 57880U 23144S   26263.30379560  .00001208  00000+0  53408-4 0  9998","line2":"2 57880  43.0012 265.9066 0001262 264.5884  95.4824 15.27579263167409","mean_motion":15.27579263,"eccentricity":0.0001262,"inclination_deg":43.0012,"raan_deg":265.9066,"arg_perigee_deg":264.5884,"mean_anomaly_deg":95.4824,"bstar":5.3408e-5,"rev_number":16740,"period_min":94.266794193841,"perigee_km":482.18542091985,"apogee_km":483.9171848475,"semimajor_km":6861.1883028837,"source":"CELESTRAK","updated_at":"2026-09-21T09:00:33.719173Z"}}}